Home > Weather > Provincetown > Past weeks

Flag for USA Past Weather in Provincetown, Massachusetts, USA — Yesterday and Last 2 Weeks

Now
56 °F

Fog.


Feels Like: 55 °F
Forecast: 59 / 66 °F
Wind: 6 mph from North

Location: Provincetown Weather Reporting Station

Current Time: May 29, 2016 at 7:17:53 PM

Latest Report: May 29, 2016 at 5:56 PM


Visibility: 6 mi

Pressure: 30.16 "Hg

Humidity: 93%

Dew Point: 54 °F

Location of ProvincetownLocation

Past Weather in Provincetown — Graph

°F

Provincetown Temperature Yesterday

Maximum temperature yesterday: 78 °F (at 2:56 PM)
Minimum temperature yesterday: 60 °F (at 1:56 AM)
Average temperature yesterday: 67 °F

High & Low Weather Summary for the Past Weeks

 TemperatureHumidityPressure
High79 °F (May 26, 1:56 PM)100% (May 22, 3:56 AM)30.23 "Hg (May 22, 3:56 AM)
Low42 °F (May 16, 5:56 AM)39% (May 15, 2:56 PM)29.53 "Hg (May 15, 4:56 AM)
Average58 °F74%30.00 "Hg
* Reported May 14 5:56 PM — May 29 5:56 PM, Provincetown, Weather by CustomWeather, © 2016

Note: Actual official high and low records may vary slightly from our data, if they occured in-between our weather recording intervals... More about our weather records

Advertising

Provincetown Weather History for the Previous 24 Hours

Scroll right to see more
 ConditionsComfort  
Time TempWeatherWind HumidityBarometerVisibility
5:56 PM
Sun, May 29
56 °FFog.6 mph93%30.16 "Hg6 mi
4:56 PM57 °FLow clouds.7 mph90%30.17 "Hg7 mi
3:56 PM58 °FLow clouds.8 mph87%30.17 "Hg8 mi
2:56 PM59 °FLow clouds.9 mph84%30.18 "Hg10 mi
1:56 PM61 °FPartly sunny.9 mph81%30.19 "Hg9 mi
12:56 PM61 °FScattered clouds.9 mph81%30.19 "Hg10 mi
11:56 AM62 °FSunny.12 mph78%30.19 "Hg10 mi
10:56 AM63 °FScattered clouds.9 mph78%30.19 "Hg10 mi
9:56 AM62 °FSunny.9 mph80%30.18 "Hg10 mi
8:56 AM61 °FSunny.10 mph83%30.17 "Hg10 mi
7:56 AM60 °FSunny.7 mph86%30.16 "Hg10 mi
6:56 AM59 °FSunny.12 mph90%30.15 "Hg10 mi
5:56 AM58 °FClear.9 mph93%30.13 "Hg9 mi
4:56 AM61 °FPassing clouds.8 mph83%30.13 "Hg10 mi
3:56 AM61 °FPassing clouds.6 mph83%30.12 "Hg10 mi
2:56 AM61 °FClear.7 mph83%30.12 "Hg10 mi
1:56 AM63 °FPassing clouds.8 mph81%30.11 "Hg10 mi
12:56 AM63 °FClear.10 mph84%30.11 "Hg10 mi
11:56 PM
Sat, May 28
63 °FClear.13 mph84%30.11 "Hg10 mi
10:56 PM63 °FPassing clouds.13 mph84%30.10 "Hg10 mi
9:56 PM64 °FClear.13 mph84%30.10 "Hg10 mi
8:56 PM63 °FSunny.12 mph87%30.09 "Hg10 mi
7:56 PM65 °FSunny.13 mph85%30.08 "Hg10 mi
Weather by CustomWeather, © 2016

See weather overviewHow to use our weather pages